Minneapolis Flying Cloud, MN

5:29 AM CDT on May 25, 2017 (GMT -0500)
Flying Cloud

Weather History for KFCM - January, 2013

Change the Weather History Date:

Thursday, January 10, 2013

  Actual Average Record
Temperature  
Mean Temperature 33 °F -  
Max Temperature 39 °F 22 °F 53 °F (2012)
Min Temperature 27 °F 7 °F -11 °F (1999)
Degree Days  
Heating Degree Days 32    
Moisture  
Dew Point 26 °F    
Average Humidity 74    
Maximum Humidity 93    
Minimum Humidity 50    
Precipitation  
Precipitation 0.24 in - - ()
Sea Level Pressure  
Sea Level Pressure 30.03 in    
Wind  
Wind Speed 9 mph (SE)    
Max Wind Speed 15 mph    
Max Gust Speed 21 mph    
Visibility 7 miles    
Events Rain    
Averages and records for this station are not official NWS values.
T = Trace of Precipitation, MM = Missing Value Source: NWS Daily Summary

Daily Weather History Graph

Daily Weather History Graph

Search for Another Location

Airport or City:

Trip Planner

Search our weather history database for the weather conditions in past years. The results will help you decide how hot, cold, wet, or windy it might be!

Date:

Astronomy

Jan. 10, 2013 Rise Set
Actual Time 7:50 AM CST 4:53 PM CST
Civil Twilight 7:17 AM CST 5:26 PM CST
Nautical Twilight 6:40 AM CST 6:02 PM CST
Astronomical Twilight 6:05 AM CST 6:38 PM CST
Moon 6:30 AM CST (1/10) 4:02 PM CST (1/10)
Length of Visible Light 10h 09m
Length of Day
9h 03m
Waning Crescent, 2% of the Moon is Illuminated
Jan 10
Waning Crescent
Jan 11
New
Jan 18
First Quarter
Jan 26
Full
Feb 3
Last Quarter

Hourly Weather History & Observations

Time (CST) Temp. Windchill Dew Point Humidity Pressure Visibility Wind Dir Wind Speed Gust Speed Precip Events Conditions
12:53 AM 27.0 °F 18.0 °F 19.0 °F 72% 30.32 in 10.0 mi SE 9.2 mph - N/A   Clear
1:53 AM 28.0 °F 20.0 °F 21.0 °F 75% 30.32 in 10.0 mi SE 8.1 mph - N/A   Clear
2:53 AM 27.0 °F 19.5 °F 19.9 °F 75% 30.31 in 10.0 mi SSE 6.9 mph - N/A   Clear
3:53 AM 30.0 °F 23.2 °F 21.9 °F 72% 30.30 in 10.0 mi South 6.9 mph - N/A   Clear
4:53 AM 32.0 °F 25.6 °F 21.9 °F 66% 30.28 in 10.0 mi South 6.9 mph - N/A   Clear
5:53 AM 33.1 °F 26.9 °F 21.9 °F 64% 30.27 in 10.0 mi SSE 6.9 mph - N/A   Clear
6:53 AM 33.1 °F 26.1 °F 21.9 °F 64% 30.27 in 10.0 mi SSE 8.1 mph - N/A   Clear
7:53 AM 32.0 °F 23.6 °F 21.0 °F 64% 30.27 in 10.0 mi SSE 10.4 mph - N/A   Clear
8:53 AM 33.1 °F 26.9 °F 23.0 °F 66% 30.26 in 10.0 mi South 6.9 mph - N/A   Clear
9:53 AM 35.1 °F 29.3 °F 23.0 °F 61% 30.24 in 10.0 mi SE 6.9 mph - N/A   Clear
10:53 AM 37.0 °F 29.8 °F 23.0 °F 57% 30.21 in 10.0 mi SSE 10.4 mph - N/A   Clear
11:53 AM 39.0 °F 31.8 °F 23.0 °F 53% 30.16 in 10.0 mi South 11.5 mph 20.7 mph N/A   Clear
12:53 PM 39.0 °F 32.8 °F 24.1 °F 55% 30.11 in 10.0 mi SE 9.2 mph - N/A   Clear
1:53 PM 39.0 °F 31.0 °F 23.0 °F 53% 30.06 in 10.0 mi ESE 13.8 mph - N/A   Clear
2:53 PM 39.0 °F 31.0 °F 21.9 °F 50% 30.05 in 10.0 mi SE 13.8 mph - N/A   Overcast
3:53 PM 37.9 °F 32.1 °F 23.0 °F 55% 30.01 in 10.0 mi East 8.1 mph - N/A   Overcast
4:53 PM 36.0 °F 29.0 °F 25.0 °F 64% 29.98 in 8.0 mi East 9.2 mph - 0.01 in Rain Light Rain
5:53 PM 34.0 °F 26.0 °F 28.0 °F 79% 29.94 in 7.0 mi ESE 10.4 mph - 0.06 in Rain Light Rain
6:43 PM 33.8 °F 23.9 °F 28.4 °F 81% 29.88 in 5.0 mi SE 15.0 mph - 0.06 in Rain Light Rain
6:53 PM 34.0 °F 24.2 °F 30.0 °F 85% 29.90 in 4.0 mi ESE 15.0 mph 20.7 mph 0.08 in Rain Light Rain
7:53 PM 34.0 °F 25.5 °F 30.0 °F 85% 29.84 in 6.0 mi ESE 11.5 mph - 0.03 in Rain Light Rain
8:20 PM 33.8 °F 24.3 °F 30.2 °F 87% 29.82 in 4.0 mi SE 13.8 mph - 0.04 in Rain Rain
8:45 PM 33.8 °F 24.3 °F 30.2 °F 87% 29.79 in 6.0 mi SE 13.8 mph - 0.06 in Rain Light Rain
8:53 PM 34.0 °F 25.0 °F 30.9 °F 89% 29.81 in 7.0 mi SE 12.7 mph - 0.06 in Rain Light Rain
9:53 PM 34.0 °F 25.0 °F 32.0 °F 92% 29.77 in 4.0 mi SE 12.7 mph - 0.00 in   Overcast
10:43 PM 35.6 °F 28.6 °F 33.8 °F 93% 29.74 in 2.0 mi SSE 9.2 mph - N/A   Overcast
10:49 PM 35.6 °F 28.6 °F 33.8 °F 93% 29.74 in 1.5 mi SSE 9.2 mph - N/A   Overcast
10:53 PM 35.1 °F 28.6 °F 33.1 °F 92% 29.76 in 1.2 mi SSE 8.1 mph - N/A   Overcast
11:18 PM 35.6 °F 28.6 °F 33.8 °F 93% 29.73 in 0.8 mi SSE 9.2 mph - N/A   Overcast
11:53 PM 35.1 °F 27.4 °F 33.1 °F 92% 29.75 in 0.8 mi SSE 10.4 mph - N/A   Overcast